[[[{"header":{"parameterUnit":"kt","parameterCategory":2,"dx":1,"dy":1,"la1":30.253999710083008,"la2":30.299108505249023,"lo1":-89.0895004272461,"lo2":-89.04439544677734,"nx":28,"ny":28,"refTime":"2022-10-08T21:00:00:Z","depth":0,"parameterNumber":1,"parameterNumberName":"U-component_of_WINDS"},"data":[-2.0006,-1.9934,-1.9879,-1.9771,-1.9703,-1.9619,-1.957,-1.9502,-1.9433,-1.9323,-1.925,-1.9185,-1.9092,-1.8989,-1.8904,-1.8877,-1.8844,-1.8859,-1.8823,-1.8812,-1.8807,-1.8801,-1.8815,-1.8853,-1.8853,-1.8843,-1.8843,-1.8843,-1.9999,-1.9932,-1.986,-1.9752,-1.9688,-1.9641,-1.955,-1.9499,-1.9424,-1.9339,-1.9264,-1.9162,-1.9074,-1.8974,-1.8878,-1.884,-1.8811,-1.8818,-1.8819,-1.8805,-1.8791,-1.8807,-1.8843,-1.8843,-1.8843,-1.8843,-1.8843,-1.8843,-1.9972,-1.9932,-1.9835,-1.9755,-1.9686,-1.9614,-1.9564,-1.9487,-1.9413,-1.931,-1.9257,-1.917,-1.9072,-1.893,-1.8868,-1.8796,-1.8778,-1.8767,-1.8764,-1.8763,-1.8768,-1.8787,-1.8778,-1.8777,-1.8777,-1.8777,-1.8776,0,-1.9935,-1.9892,-1.9819,-1.973,-1.9668,-1.9593,-1.9514,-1.9482,-1.937,-1.9314,-1.9227,-1.9168,-1.9049,-1.8959,-1.8857,-1.8794,-1.8736,-1.8725,-1.8717,-1.8741,-1.8775,-1.8754,-1.8732,-1.8726,-1.8725,-1.8724,-1.8724,-1.8724,-1.9902,-1.9863,-1.9735,-1.9691,-1.9635,-1.9565,-1.9511,-1.9416,-1.9363,-1.925,-1.9218,-1.9128,-1.9051,-1.892,-1.8827,-1.8737,-1.8708,-1.8711,-1.8694,-1.8718,-1.8705,-1.8708,-1.8702,-1.8717,-1.8718,-1.8718,-1.8719,0,-1.9888,-1.9799,-1.972,-1.9597,-1.9564,-1.9527,-1.942,-1.9375,-1.9304,-1.9231,-1.9208,-1.9097,-1.9013,-1.8919,-1.8804,-1.8757,-1.8687,-1.8662,-1.872,-1.8709,-1.8701,-1.8703,-1.8695,-1.8688,-1.865,-1.8651,-1.8651,0,-1.9825,-1.9776,-1.9645,-1.9604,-1.9546,-1.9451,-1.9395,-1.9329,-1.9245,-1.9187,-1.9109,-1.9055,-1.8944,-1.8876,-1.8807,-1.8734,-1.8713,-1.8672,-1.8654,-1.8678,-1.8683,-1.8647,-1.8645,-1.8618,-1.8618,-1.8618,-1.8618,0,-1.9811,-1.9685,-1.9618,-1.9574,-1.9438,-1.9408,-1.935,-1.9255,-1.9203,-1.9121,-1.9086,-1.8997,-1.8947,-1.8878,-1.8791,-1.8782,-1.87,-1.867,-1.8658,-1.866,-1.8644,-1.8646,-1.8664,-1.8618,-1.8618,-1.8618,-1.8618,0,-1.9746,-1.9668,-1.9584,-1.9468,-1.9439,-1.9394,-1.9301,-1.9241,-1.9147,-1.9101,-1.9035,-1.8971,-1.8902,-1.8879,-1.878,-1.8794,-1.8749,-1.8704,-1.8701,-1.8688,-1.8665,-1.8685,-1.8713,-1.8712,-1.8677,-1.8677,-1.8678,0,-1.9754,-1.9647,-1.9565,-1.9488,-1.9425,-1.9341,-1.9289,-1.9209,-1.9144,-1.9079,-1.9006,-1.8933,-1.8896,-1.886,-1.8824,-1.8745,-1.8727,-1.8744,-1.8648,-1.8646,-1.8675,-1.8699,-1.8727,-1.8718,-1.8683,-1.8682,-1.8682,0,-1.9749,-1.9586,-1.9579,-1.9524,-1.9405,-1.9353,-1.9294,-1.9201,-1.9163,-1.9082,-1.9028,-1.8924,-1.8891,-1.8833,-1.8772,-1.874,-1.8736,-1.8708,-1.8704,-1.8715,-1.8678,-1.8704,-1.8703,-1.8702,-1.8701,-1.87,-1.8686,0,-1.9666,-1.9602,-1.9578,-1.9464,-1.9409,-1.9356,-1.9259,-1.9214,-1.9161,-1.9093,-1.9014,-1.8924,-1.8829,-1.8804,-1.8752,-1.8708,-1.87,-1.8667,-1.8637,-1.8655,-1.8647,-1.8644,-1.8655,-1.8654,-1.8653,-1.8652,0,0,-1.9695,-1.9602,-1.9515,-1.9456,-1.9404,-1.9319,-1.9271,-1.921,-1.909,-1.9055,-1.9038,-1.8879,-1.8807,-1.872,-1.8718,-1.8681,-1.8663,-1.8661,-1.8647,-1.8647,-1.8647,-1.8641,-1.864,-1.865,-1.8649,-1.8649,-1.8648,0,-1.9645,-1.9577,-1.9532,-1.9466,-1.9365,-1.9296,-1.9286,-1.917,-1.9125,-1.9048,-1.8977,-1.8918,-1.8795,-1.8727,-1.8676,-1.8669,-1.8618,-1.8648,-1.8676,-1.8638,-1.864,-1.8641,-1.8636,-1.8636,-1.8645,-1.8645,-1.8646,0,-1.9621,-1.9538,-1.9507,-1.9387,-1.932,-1.9259,-1.9203,-1.9142,-1.9094,-1.9002,-1.8928,-1.8864,-1.8766,-1.8698,-1.8664,-1.8647,-1.8583,-1.8587,-1.8592,-1.8586,-1.8544,-1.8546,-1.8548,-1.8523,-1.8523,-1.8523,0,0,-1.9591,-1.9532,-1.9412,-1.937,-1.9332,-1.923,-1.9188,-1.9132,-1.9046,-1.9012,-1.8931,-1.8848,-1.8775,-1.8729,-1.8656,-1.8596,-1.8566,-1.8576,-1.8582,-1.8587,-1.8584,-1.8544,-1.8546,-1.8523,-1.8523,-1.8523,0,0,-1.9576,-1.9436,-1.9399,-1.9338,-1.926,-1.9138,-1.9114,-1.9065,-1.899,-1.8985,-1.8885,-1.8859,-1.8794,-1.8735,-1.8745,-1.8643,-1.8615,-1.861,-1.8684,-1.869,-1.8695,-1.871,-1.8675,0,0,0,0,0,-1.9476,-1.9454,-1.9421,-1.9397,-1.9246,-1.9156,-1.9136,-1.9054,-1.9036,-1.9019,-1.8942,-1.8891,-1.8719,-1.8726,-1.8702,-1.8691,-1.8522,-1.8523,-1.8523,-1.8603,-1.861,-1.8616,0,0,0,0,0,0,-1.9465,-1.9436,-1.9422,-1.9301,-1.9266,-1.9156,-1.9107,-1.9084,-1.9035,-1.9027,-1.8908,-1.8887,-1.8815,-1.8732,-1.8712,-1.8704,-1.8682,-1.8522,-1.8523,-1.8523,-1.8605,-1.8611,-1.8616,0,0,0,0,0,-1.9457,-1.9433,-1.9213,-1.93,-1.927,-1.9156,-1.9107,-1.9087,-1.9048,-1.893,-1.8909,-1.8991,-1.8817,-1.8794,-1.872,-1.8715,-1.8695,-1.8688,-1.8523,-1.8523,-1.8523,-1.8608,0,0,0,0,0,0,-1.945,-1.9413,-1.9205,-1.9193,-1.9303,-1.916,-1.9135,-1.9091,-1.8953,-1.8931,-1.9009,-1.9004,-1.8818,-1.88,-1.8783,-1.8724,-1.8706,-1.8699,-1.8694,-1.8523,-1.8523,-1.8523,0,0,0,0,0,0,-1.9425,-1.9403,-1.9199,-1.9207,-1.9195,-1.9165,-1.9142,-1.9068,-1.8952,-1.9039,-1.903,-1.9008,-1.8843,-1.8804,-1.879,-1.8677,-1.8714,-1.8707,-1.8703,-1.8699,-1.8523,-1.8523,0,0,0,0,0,0,-1.9415,-1.9396,-1.921,-1.92,-1.9189,-1.9044,-1.9097,-1.8946,-1.8962,-1.9046,-1.8961,-1.896,-1.8849,-1.8833,-1.8796,-1.869,-1.8681,-1.8714,-1.8709,-1.8706,-1.8704,0,0,0,0,0,0,0,-1.9406,-1.9553,-1.9279,-1.9195,-1.9185,-1.9078,-1.9075,-1.9071,-1.8962,-1.8961,-1.8961,-1.896,-1.8755,-1.8747,-1.8739,-1.8699,0,0,-1.8715,-1.8712,0,0,0,0,0,0,0,0,-1.9559,-1.9555,-1.9278,-1.9276,-1.9273,-1.9078,-1.9075,-1.9072,-1.8962,-1.8961,-1.8961,-1.896,-1.8753,-1.8746,-1.874,0,0,0,0,0,0,0,0,0,0,0,0,0,0,0,-1.9278,-1.9276,0,-1.9077,-1.9075,-1.9073,-1.8961,-1.8961,-1.8961,-1.8961,-1.8751,-1.8746,-1.8741,0,0,0,0,0,0,0,0,0,0,0,0,0,0,0,0,0,0,0,0,0,0,0,0,0,0,0,0,0,0,0,0,0,0,0,0,0,0,0,0,0,0,0,0,0,0,0,0,0,0,0,0,0,0,0,0,0,0,0,0,0,0,0,0,0,0,0,0,0]}],[{"header":{"parameterUnit":"kt","parameterCategory":2,"dx":1,"dy":1,"la1":30.253999710083008,"la2":30.299108505249023,"lo1":-89.0895004272461,"lo2":-89.04439544677734,"nx":28,"ny":28,"refTime":"2022-10-08T21:00:00:Z","depth":0,"parameterNumber":2,"parameterNumberName":"V-component_of_WINDS"},"data":[-7.5907,-7.5815,-7.5833,-7.5736,-7.5735,-7.567,-7.5652,-7.563,-7.5616,-7.5539,-7.5497,-7.5502,-7.5492,-7.5443,-7.5396,-7.5398,-7.5376,-7.5334,-7.5343,-7.5522,-7.5548,-7.5572,-7.5595,-7.533,-7.5329,-7.5154,-7.5152,-7.5151,-7.6045,-7.6044,-7.5997,-7.5963,-7.5923,-7.5977,-7.5952,-7.5914,-7.5853,-7.5834,-7.5793,-7.5724,-7.5671,-7.5674,-7.5624,-7.5579,-7.5597,-7.5564,-7.5565,-7.5562,-7.5755,-7.578,-7.555,-7.555,-7.555,-7.555,-7.555,-7.555,-7.6299,-7.6243,-7.6233,-7.6182,-7.6169,-7.6145,-7.6093,-7.6101,-7.6053,-7.6004,-7.6031,-7.596,-7.5941,-7.5886,-7.587,-7.5814,-7.5852,-7.5818,-7.5809,-7.5799,-7.5786,-7.6038,-7.5806,-7.5807,-7.5807,-7.5808,-7.5808,0,-7.649,-7.6508,-7.6463,-7.6424,-7.6387,-7.6356,-7.633,-7.6298,-7.6337,-7.6294,-7.6234,-7.62,-7.6134,-7.6076,-7.6031,-7.602,-7.6062,-7.6069,-7.6045,-7.6029,-7.6024,-7.6024,-7.6337,-7.6073,-7.6075,-7.6077,-7.6078,-7.6079,-7.6745,-7.6677,-7.6672,-7.6638,-7.6628,-7.6571,-7.654,-7.6579,-7.6544,-7.6515,-7.6461,-7.6405,-7.6361,-7.6257,-7.626,-7.6208,-7.6227,-7.6125,-7.6219,-7.621,-7.6223,-7.6225,-7.6218,-7.6104,-7.6101,-7.6098,-7.6096,0,-7.6887,-7.6913,-7.6812,-7.6812,-7.681,-7.6735,-7.6733,-7.6676,-7.6688,-7.661,-7.6594,-7.661,-7.6547,-7.6567,-7.6497,-7.6509,-7.6383,-7.6404,-7.6392,-7.6396,-7.6305,-7.6312,-7.6009,-7.5971,-7.625,-7.6248,-7.6245,0,-7.7113,-7.702,-7.7064,-7.7003,-7.6903,-7.6944,-7.6841,-7.6841,-7.6825,-7.6764,-7.6819,-7.676,-7.6794,-7.6737,-7.6754,-7.6655,-7.6642,-7.6644,-7.6648,-7.6636,-7.6636,-7.6612,-7.6623,-7.6664,-7.6665,-7.6667,-7.6668,0,-7.7329,-7.7243,-7.7146,-7.713,-7.7117,-7.7069,-7.7061,-7.7042,-7.7009,-7.697,-7.6948,-7.6898,-7.6869,-7.6829,-7.685,-7.6913,-7.673,-7.682,-7.6731,-7.673,-7.6684,-7.6686,-7.6419,-7.667,-7.667,-7.6671,-7.6671,0,-7.7513,-7.7476,-7.733,-7.7322,-7.7296,-7.723,-7.7186,-7.7134,-7.7109,-7.7116,-7.7085,-7.712,-7.7036,-7.7125,-7.7009,-7.7084,-7.7053,-7.7047,-7.7041,-7.703,-7.7127,-7.697,-7.6716,-7.6689,-7.7027,-7.703,-7.7033,0,-7.7754,-7.7613,-7.7646,-7.7505,-7.7442,-7.7509,-7.7437,-7.7413,-7.7416,-7.7362,-7.7365,-7.7299,-7.737,-7.7351,-7.7292,-7.7289,-7.7191,-7.7304,-7.7218,-7.7215,-7.7222,-7.699,-7.6945,-7.6771,-7.7071,-7.7067,-7.7064,0,-7.7941,-7.7927,-7.7899,-7.7882,-7.7858,-7.7804,-7.772,-7.7666,-7.7628,-7.7594,-7.7523,-7.7432,-7.7481,-7.7449,-7.7471,-7.7408,-7.7259,-7.7467,-7.7466,-7.7427,-7.7092,-7.7051,-7.7022,-7.7288,-7.7283,-7.7279,-7.7095,0,-7.8211,-7.8142,-7.8069,-7.8026,-7.7988,-7.79,-7.7922,-7.7879,-7.7906,-7.791,-7.7806,-7.7786,-7.7725,-7.7696,-7.7719,-7.7569,-7.7596,-7.7647,-7.7729,-7.7578,-7.7517,-7.7493,-7.7819,-7.7822,-7.7824,-7.7826,0,0,-7.8432,-7.8334,-7.8371,-7.8291,-7.8261,-7.8328,-7.8232,-7.8209,-7.8159,-7.8136,-7.8184,-7.8051,-7.803,-7.7899,-7.7854,-7.7829,-7.7803,-7.7853,-7.765,-7.7631,-7.7613,-7.7548,-7.7522,-7.7829,-7.783,-7.7831,-7.7831,0,-7.8534,-7.852,-7.8426,-7.8406,-7.8376,-7.8385,-7.8363,-7.8343,-7.834,-7.8238,-7.8289,-7.8228,-7.8117,-7.809,-7.8061,-7.7872,-7.7911,-7.7852,-7.7744,-7.7672,-7.7649,-7.7629,-7.7561,-7.7536,-7.7837,-7.7836,-7.7836,0,-7.8721,-7.871,-7.8667,-7.8602,-7.8581,-7.8512,-7.8608,-7.853,-7.8478,-7.8548,-7.8443,-7.8433,-7.8396,-7.827,-7.8213,-7.8254,-7.8008,-7.8088,-7.8075,-7.8067,-7.7997,-7.797,-7.7946,-7.8261,-7.8263,-7.8264,0,0,-7.8806,-7.8742,-7.8737,-7.8624,-7.8609,-7.862,-7.8584,-7.8606,-7.8575,-7.8561,-7.8548,-7.8512,-7.8449,-7.8406,-7.8347,-7.8205,-7.8199,-7.8139,-7.8119,-7.8103,-7.8086,-7.8012,-7.7985,-7.8269,-7.8269,-7.827,0,0,-7.8844,-7.8836,-7.887,-7.8742,-7.8712,-7.8696,-7.8625,-7.8664,-7.8613,-7.8624,-7.8653,-7.8645,-7.8527,-7.8513,-7.8584,-7.8375,-7.8458,-7.8441,-7.8388,-7.8363,-7.8343,-7.8347,-7.8672,0,0,0,0,0,-7.8957,-7.8839,-7.8869,-7.8851,-7.8764,-7.8681,-7.8669,-7.8693,-7.8753,-7.8696,-7.8692,-7.8736,-7.8558,-7.8621,-7.86,-7.8519,-7.8339,-7.8326,-7.8315,-7.8214,-7.8187,-7.8165,0,0,0,0,0,0,-7.895,-7.8928,-7.8872,-7.8852,-7.8832,-7.8685,-7.8791,-7.8794,-7.8759,-7.877,-7.8736,-7.8735,-7.875,-7.8633,-7.8614,-7.8536,-7.8678,-7.8334,-7.8323,-7.8314,-7.8205,-7.8183,-7.8164,0,0,0,0,0,-7.8945,-7.8927,-7.8782,-7.8853,-7.8837,-7.884,-7.8795,-7.8799,-7.8772,-7.8763,-7.8764,-7.8793,-7.8748,-7.8733,-7.8622,-7.8545,-7.8692,-7.8685,-7.8327,-7.8319,-7.8311,-7.8194,0,0,0,0,0,0,-7.8941,-7.8928,-7.8779,-7.8775,-7.89,-7.8849,-7.8842,-7.8803,-7.8768,-7.8767,-7.8822,-7.883,-7.8744,-7.8733,-7.8721,-7.8546,-7.8703,-7.8695,-7.8691,-7.8321,-7.8314,-7.8309,0,0,0,0,0,0,-7.8938,-7.8924,-7.8777,-7.8835,-7.8837,-7.8857,-7.8851,-7.8758,-7.8766,-7.8829,-7.8835,-7.8826,-7.876,-7.8733,-7.8724,-7.8579,-7.8711,-7.8704,-7.8699,-7.8696,-7.8315,-7.831,0,0,0,0,0,0,-7.8932,-7.892,-7.8836,-7.8838,-7.884,-7.8793,-7.8775,-7.8684,-7.882,-7.8829,-7.8833,-7.8838,-7.8758,-7.875,-7.8726,-7.8584,-7.858,-7.8711,-7.8706,-7.8703,-7.8701,0,0,0,0,0,0,0,-7.8928,-7.9004,-7.8806,-7.884,-7.8843,-7.8735,-7.8734,-7.8733,-7.8821,-7.8826,-7.8831,-7.8836,-7.8752,-7.8744,-7.8736,-7.8588,0,0,-7.8712,-7.8708,0,0,0,0,0,0,0,0,-7.901,-7.9005,-7.8805,-7.8805,-7.8804,-7.8735,-7.8734,-7.8733,-7.8822,-7.8826,-7.883,-7.8834,-7.875,-7.8744,-7.8737,0,0,0,0,0,0,0,0,0,0,0,0,0,0,0,-7.8805,-7.8805,0,-7.8735,-7.8734,-7.8733,-7.8823,-7.8826,-7.8829,-7.8832,-7.8748,-7.8743,-7.8738,0,0,0,0,0,0,0,0,0,0,0,0,0,0,0,0,0,0,0,0,0,0,0,0,0,0,0,0,0,0,0,0,0,0,0,0,0,0,0,0,0,0,0,0,0,0,0,0,0,0,0,0,0,0,0,0,0,0,0,0,0,0,0,0,0,0,0,0,0]}]]]